Preview of NWS' New Version of Forecast
This preview is not operational and should not be used for support decisions.

Regional Weather Roundup (RWR)

Issued by Lubbock, TX (LUB)

                            
000
ASUS44 KLUB 160810
RWRLUB
WEST TEXAS WEATHER ROUNDUP
NATIONAL WEATHER SERVICE LUBBOCK TX
300 AM CDT TUE OCT 16 2018

NOTE: "FAIR" INDICATES FEW OR NO CLOUDS BELOW 12,000 FEET WITH NO
SIGNIFICANT WEATHER AND/OR OBSTRUCTIONS TO VISIBILITY.

TXZ004-006>008-010-012-014-016-OKZ002-160900-
TEXAS PANHANDLE/OKLAHOMA PANHANDLE
  
CITY           SKY/WX    TMP DP  RH WIND       PRES   REMARKS
AMARILLO       CLOUDY    41  27  57 N5        30.35S                  
BORGER         CLOUDY    41  30  65 CALM      30.35F                  
CANADIAN       CLEAR     38  36  91 CALM      30.35F                  
DALHART        MOCLDY    33  24  69 NW7       30.36F WCI  27          
DUMAS          CLOUDY    38  30  72 W6        30.35S WCI  33          
GUYMON         CLEAR     31  24  75 W7        30.36S WCI  24          
HEREFORD       CLOUDY    39  35  86 CALM      30.36F                  
PAMPA          CLOUDY    41  29  62 NW5       30.36R                  
PERRYTON       CLOUDY    35  32  89 W3        30.35S                  
$$

TXZ026-029-035-045-048-160900-
SOUTHERN PANHANDLE/SOUTH PLAINS/ROLLING PLAINS
  
CITY           SKY/WX    TMP DP  RH WIND       PRES   REMARKS
CHILDRESS      CLOUDY    43  34  70 N12       30.37R                  
SEMINOLE       CLOUDY    38  34  84 N12       30.38S WCI  31          
LUBBOCK        CLOUDY    37  34  89 N9        30.34R WCI  30          
PLAINVIEW      CLOUDY    36  33  88 NE6       30.33F WCI  31          
SNYDER         RAIN      40  36  87 N12G17    30.32S WCI  32          
$$

TXZ052-054-060>062-072-078-127-140-154-169-160900-
PERMIAN BASIN/CONCHO VALLEY/BIG COUNTRY/EDWARDS PLATEAU  
  
CITY           SKY/WX    TMP DP  RH WIND       PRES   REMARKS
ABILENE        LGT RAIN  41  39  93 N15       30.28F                  
BIG SPRING     CLOUDY    39  35  85 N9        30.35F WCI  33          
BRADY          HVY RAIN  41  39  93 N14G25    30.24R                  
BROWNWOOD      CLOUDY    41  39  93 N13G22    30.24R                  
JUNCTION       RAIN      42  40  92 VRB3      30.27R FOG              
MIDLAND        CLOUDY    42  33  70 N15G23    30.32F                  
ODESSA         CLOUDY    42  30  62 NE10      30.33S                  
SAN ANGELO       N/A    N/A N/A N/A MISG      30.29S                  
SONORA         LGT RAIN  39  39 100 N8        30.32R WCI  34          
SWEETWATER     CLOUDY    39  38  95 N9        30.34R WCI  33          
WINK           CLOUDY    42  31  64 N10       30.33S                  
$$

TXZ055-058-074-075-080-082-160900-
FAR WEST/SOUTHWEST MOUNTAINS/TRANS PECOS
  
CITY           SKY/WX    TMP DP  RH WIND       PRES   REMARKS
ALPINE         CLOUDY    33  33  99 NE10      30.35S WCI  25          
EL PASO        CLOUDY    45  29  53 E9        30.26F                  
FORT STOCKTON  CLOUDY    38  36  92 E6        30.34S WCI  33          
PECOS          CLOUDY    43  31  63 N7        30.35F                  
PRESIDIO       CLOUDY    44  33  65 N12       30.29F                  
$$

TXZ014-016-019-021>030-083-160900
TEXAS TECH WEST TEXAS MESONET/TEXAS PANHANDLE/NORTHERN SOUTH PLAINS
  
CITY           SKY/WX    TMP DP  RH WIND       PRES   REMARKS
ABERNATHY 5ENE   N/A     36  34  94 NE12G17   30.36F WCI  27          
AMARILLO 9NNE    N/A     40  32  70 N2        30.36F                  
AMARILLO 7SSE    N/A     40  28  61 W1        30.38R                  
AMHERST 1NE      N/A     37  35  91 NW5       30.36S WCI  33          
BOOTLEG 11WNW    N/A     38  29  69 N2        30.38S                  
CANADIAN 6E      N/A     36  33  87 NW5       30.34F WCI  32          
CAPROCK CYN SP   N/A     37  35  90 NW6       30.39S WCI  33          
CHILDRESS 2NNE   N/A     43  33  68 NW10      30.37F                  
CLARENDON 2WSW   N/A     40  36  84 NW2       30.37S                  
CLAUDE 12SW      N/A     39  31  73 S1        30.37R                  
DIMMITT 2NE      N/A     36  33  87 N3        30.36F                  
FLOYDADA 2NNE    N/A     36  33  89 N7        30.35S WCI  30          
FRIONA 2NE       N/A     37  33  85 NW1       30.37S                  
GOODLETT 3W      N/A     44  32  61 N8        30.36F                  
HART 3N          N/A     37  35  92 W3        30.36S                  
HEREFORD 2NW     N/A     38  32  77 SW2       30.38F                  
MCLEAN 1E        N/A     40  34  78 N6        30.34F                  
MEMPHIS 1NE      N/A     41  38  91 W1        30.39R                  
MULESHOE 2SSW    N/A     38  35  90 N2        30.36F                  
OLTON 6S         N/A     37  33  87 N6        30.35F WCI  32          
PALO DURO SP     N/A     41  29  61 CALM      30.38S                  
PAMPA 2E         N/A     40  29  64 N5        30.36S                  
PLAINVIEW 1S     N/A     37  35  91 N2        30.37S                  
SILVERTON 7ESE   N/A     37  33  87 N7        30.35F WCI  31          
TULIA 2ENE       N/A     38  34  87 W3        30.37S                  
TURKEY 2WSW      N/A     38  37  94 W9        30.39R WCI  32          
UMBARGER 3NNE    N/A     38  31  78 NW5       30.37S WCI  34          
$$

TXZ033>036-039>041-045>048-160900
TEXAS TECH WEST TEXAS MESONET/SOUTH PLAINS  
  
CITY           SKY/WX    TMP DP  RH WIND       PRES   REMARKS
AIKEN 3WSW       N/A     35  31  86 N7        30.38R WCI  29          
ANDREWS 2NE      N/A     40  31  71 N13       30.36S WCI  32          
ANTON 6SSW       N/A     37  33  89 N10       30.36S WCI  29          
BROWNFIELD 2S    N/A     37  33  87 N12       30.36S WCI  29          
DENVR CTY 7WNW   N/A     37  28  71 N10       30.35R WCI  30          
GAIL 2ESE        N/A     39  35  84 N7        30.35R WCI  34          
LAMESA 2SE       N/A     39  34  80 N12G17    30.35S WCI  32          
LUBBOCK 3WNW     N/A     37  35  91 N7        30.36S WCI  32          
MORTON 1ENE      N/A     37  32  83 NE5       30.36S WCI  33          
ODONNELL 1N      N/A     38  32  79 N16       30.35R WCI  29          
PLAINS 3N        N/A     37  29  70 N7        30.35F WCI  32          
RALLS 1SE        N/A     37  31  78 N14       30.36S WCI  28          
REESE CENTER     N/A     35  33  90 N9        30.36F WCI  28          
SEAGRAVES 1SW    N/A     37  33  87 N13       30.35S WCI  29          
SEMINOLE 2NNE    N/A     38  34  87 N12       30.35S WCI  30          
SLATON 2NE       N/A     37  31  81 N13       30.36S WCI  29          
SNYDER 3E        N/A     39  36  87 N12       30.33S WCI  32          
SUNDOWN 8SW      N/A     37  29  73 N9        30.35S WCI  30          
TAHOKA 3NNE      N/A     38  32  78 N14       30.35F WCI  30          
WOLFFORTH 6SSW   N/A     37  33  89 N10       30.36S WCI  29          
$$

TXZ031-032-036>038-042>044-160900-
TEXAS TECH WEST TEXAS MESONET/ROLLING PLAINS 
  
CITY           SKY/WX    TMP DP  RH WIND       PRES   REMARKS
ASPERMONT 3NE    N/A     42  36  79 N10G16    30.33F                  
FLUVANNA 3WNW    N/A     40  33  75 N16       30.33S WCI  31          
GRAHAM 5SSW      N/A     39  32  77 N14       30.34S WCI  31          
GUTHRIE 10WSW    N/A     41  35  77 N13       30.34F                  
HASKELL 1NW      N/A     42  35  79 N13       30.34S                  
JAYTON 1SSE      N/A     41  36  81 N8        30.34S                  
KNOX CITY 3NW    N/A     44  37  76 N10G17    30.35F                  
LK A HENRY 1NW   N/A     42  35  79 N7        30.35S                  
NORTHFIELD 1S    N/A     41  37  85 NW9       30.38S                  
ODELL 4ENE       N/A     44  34  68 N10       30.36F                  
PADUCAH 10SW     N/A     43  34  69 N9        30.35S                  
POST 1NE         N/A     40  33  76 N8        30.35S WCI  35          
RRING SPRGS 3N   N/A     39  34  81 N13       30.35S WCI  31          
SEYMOUR 3NW      N/A     44  36  72 N12       30.34F                  
SPUR 1W          N/A     42  32  68 N6        30.34S                  
WEINERT 2NNE     N/A     43  36  76 N16       30.35F                  
WHITE RVR 6NE    N/A     41  32  70 NW14      30.34S                  
$$

TXZ052-054-060>062-072-078-127-140-154-169-160900-
TEXAS TECH WEST TEXAS MESONET/PERMIAN BASIN/
CONCHO VALLEY/BIG COUNTRY/EDWARDS PLATEAU
  
CITY           SKY/WX    TMP DP  RH WIND       PRES   REMARKS
COYANOSA 2N      N/A     41  36  82 E7        30.36S                  
JUNCTION 1SSW    N/A     41  41  99 NW3       30.28R                  
MERTZON 3NNE     N/A     38  37  97 N13       30.31F WCI  30          
SAN ANGELO 7NW   N/A     40  36  87 NW9       30.32R WCI  34          
STRLNG CT 4WSW   N/A     37  36  96 N9        30.35F WCI  30          
ST LAWRNCE 5SW   N/A     39  33  81 N14       30.33S WCI  31          
SWEETWATR 11SW   N/A     37  37  99 N16       30.32R WCI  28          
WALL 1E          N/A     40  39  94 N10       30.31S WCI  34          
$$

TXZ055-058-074-075-080-082-160900-
TEXAS TECH WEST TEXAS MESONET/FAR WEST/SOUTHWEST MOUNTAINS/TRANS PECOS
  
CITY           SKY/WX    TMP DP  RH WIND       PRES   REMARKS
PRSMN GAP BBNP   N/A     40  38  95 NE9       30.29F WCI  33          
GUADLPE MTN NP   N/A     33  25  74 NE8       30.30F WCI  25          
$$